| time (UTC) | temp F | wind direction | speed knots | gust knots | rain 1hr in | rain 24hr in | rain mn in | humidity % | barometer mb |
| 20260831054504 | 78 | 97 | 2.6 | 6.1 | 0.00 | 0.00 | 0.00 | 36 | 1027.4 |
| 20260831053604 | 78 | 82 | 3.5 | 7.0 | 0.00 | 0.00 | 0.00 | 38 | 1027.5 |
| 20260831052703 | 78 | 91 | 2.6 | 7.0 | 0.00 | 0.00 | 0.00 | 38 | 1027.5 |
| 20260831051803 | 78 | 83 | 1.7 | 6.1 | 0.00 | 0.00 | 0.00 | 39 | 1027.4 |
| 20260831051119 | 77 | 65 | 2.6 | 7.0 | 0.00 | 0.00 | 0.00 | 41 | 1027.5 |
| 20260831050004 | 77 | 74 | 3.5 | 7.0 | 0.00 | 0.00 | 0.00 | 40 | 1027.7 |
| 20260831045403 | 77 | 87 | 3.5 | 7.0 | 0.00 | 0.00 | 0.00 | 39 | 1027.7 |
| 20260831044504 | 77 | 95 | 3.5 | 8.7 | 0.00 | 0.00 | 0.00 | 38 | 1027.8 |
| 20260831043605 | 77 | 79 | 2.6 | 7.0 | 0.00 | 0.00 | 0.00 | 39 | 1027.7 |
| 20260831042920 | 77 | 71 | 2.6 | 7.0 | 0.00 | 0.00 | 0.00 | 39 | 1028.0 |
| 20260831041803 | 76 | 76 | 2.6 | 7.8 | 0.00 | 0.00 | 0.00 | 43 | 1028.0 |
| 20260831040903 | 76 | 76 | 3.5 | 7.8 | 0.00 | 0.00 | 0.00 | 43 | 1028.0 |
| 20260831040004 | 75 | 88 | 2.6 | 8.7 | 0.00 | 0.00 | 0.00 | 43 | 1027.9 |
| 20260831035403 | 75 | 80 | 1.7 | 7.0 | 0.00 | 0.00 | 0.00 | 45 | 1028.1 |
| 20260831034716 | 75 | 94 | 3.5 | 8.7 | 0.00 | 0.00 | 0.00 | 47 | 1028.2 |
| 20260831033604 | 73 | 110 | 2.6 | 7.0 | 0.00 | 0.00 | 0.00 | 50 | 1028.2 |
| 20260831032919 | 73 | 95 | 4.3 | 7.8 | 0.00 | 0.00 | 0.00 | 49 | 1028.2 |
| 20260831031803 | 73 | 101 | 1.7 | 5.2 | 0.00 | 0.00 | 0.00 | 50 | 1028.5 |
| 20260831030904 | 72 | 85 | 2.6 | 5.2 | 0.00 | 0.00 | 0.00 | 48 | 1028.7 |
| 20260831030005 | 72 | 101 | 3.5 | 7.0 | 0.00 | 0.00 | 0.00 | 51 | 1028.8 |
| 20260831025617 | 72 | 106 | 2.6 | 7.0 | 0.00 | 0.00 | 0.00 | 53 | 1028.8 |
| 20260831024503 | 72 | 83 | 2.6 | 7.0 | 0.00 | 0.00 | 0.00 | 53 | 1029.0 |
| 20260831023820 | 71 | 97 | 2.6 | 6.1 | 0.00 | 0.00 | 0.00 | 54 | 1029.0 |
| 20260831022704 | 71 | 102 | 2.6 | 5.2 | 0.00 | 0.00 | 0.00 | 55 | 1029.1 |
| 20260831021805 | 71 | 72 | 1.7 | 5.2 | 0.00 | 0.00 | 0.00 | 57 | 1029.4 |
| 20260831020903 | 70 | 67 | 1.7 | 5.2 | 0.00 | 0.00 | 0.00 | 58 | 1029.6 |
| 20260831020005 | 69 | 90 | 1.7 | 5.2 | 0.00 | 0.00 | 0.00 | 60 | 1029.8 |
| 20260831015403 | 69 | 83 | 1.7 | 5.2 | 0.00 | 0.00 | 0.00 | 61 | 1029.9 |
| 20260831014504 | 67 | 130 | 1.7 | 6.1 | 0.00 | 0.00 | 0.00 | 61 | 1030.0 |
| 20260831013603 | 66 | 134 | 2.6 | 6.1 | 0.00 | 0.00 | 0.00 | 62 | 1030.3 |
| 20260831012704 | 66 | 182 | 1.7 | 3.5 | 0.00 | 0.00 | 0.00 | 63 | 1030.5 |
| 20260831011803 | 65 | 175 | 0.9 | 4.3 | 0.00 | 0.00 | 0.00 | 63 | 1030.7 |
| 20260831010903 | 65 | 177 | 1.7 | 4.3 | 0.00 | 0.00 | 0.00 | 64 | 1030.9 |
| 20260831010004 | 65 | 179 | 1.7 | 4.3 | 0.00 | 0.00 | 0.00 | 64 | 1031.0 |
| 20260831005616 | 65 | 176 | 0.9 | 4.3 | 0.00 | 0.00 | 0.00 | 64 | 1031.0 |
| 20260831004506 | 65 | 84 | 1.7 | 5.2 | 0.00 | 0.00 | 0.00 | 66 | 1031.0 |
| 20260831003603 | 64 | 80 | 1.7 | 4.3 | 0.00 | 0.00 | 0.00 | 68 | 1031.1 |
| 20260831002704 | 63 | 87 | 1.7 | 6.1 | 0.00 | 0.00 | 0.00 | 69 | 1031.0 |
| 20260831002018 | 62 | 99 | 2.6 | 6.1 | 0.00 | 0.00 | 0.00 | 70 | 1031.1 |
| 20260831000903 | 61 | 125 | 2.6 | 6.1 | 0.00 | 0.00 | 0.00 | 70 | 1031.0 |
| 20260831000003 | 61 | 109 | 1.7 | 6.1 | 0.00 | 0.00 | 0.00 | 69 | 1031.1 |
| 20260830235403 | 61 | 89 | 1.7 | 3.5 | 0.00 | 0.00 | 0.00 | 70 | 1031.1 |
| 20260830234504 | 60 | 92 | 1.7 | 3.5 | 0.00 | 0.00 | 0.00 | 71 | 1031.2 |
| 20260830233818 | 60 | 93 | 1.7 | 5.2 | 0.00 | 0.00 | 0.00 | 71 | 1031.3 |
| 20260830232703 | 59 | 85 | 2.6 | 6.1 | 0.00 | 0.00 | 0.00 | 73 | 1031.3 |
| 20260830231803 | 58 | 83 | 1.7 | 3.5 | 0.00 | 0.00 | 0.00 | 74 | 1031.5 |
| 20260830230903 | 57 | 81 | 2.6 | 4.3 | 0.00 | 0.00 | 0.00 | 76 | 1031.4 |
| 20260830230004 | 56 | 75 | 1.7 | 4.3 | 0.00 | 0.00 | 0.00 | 78 | 1031.5 |
| 20260830225404 | 55 | 69 | 1.7 | 3.5 | 0.00 | 0.00 | 0.00 | 79 | 1031.5 |
| 20260830224503 | 55 | 63 | 1.7 | 2.6 | 0.00 | 0.00 | 0.00 | 79 | 1031.5 |
| 20260830223604 | 54 | 63 | 0.9 | 3.5 | 0.00 | 0.00 | 0.00 | 82 | 1031.4 |
| 20260830222703 | 52 | 63 | 0.0 | 2.6 | 0.00 | 0.00 | 0.00 | 85 | 1031.5 |
| 20260830221803 | 52 | 63 | 0.0 | 0.9 | 0.00 | 0.00 | 0.00 | 86 | 1031.5 |
| 20260830220903 | 51 | 60 | 0.0 | 1.7 | 0.00 | 0.00 | 0.00 | 88 | 1031.5 |
| 20260830220004 | 50 | 57 | 0.0 | 0.9 | 0.00 | 0.00 | 0.00 | 90 | 1031.3 |
| 20260830215619 | 49 | 0 | 0.0 | 0.0 | 0.00 | 0.00 | 0.00 | 90 | 1031.2 |
| 20260830214503 | 48 | 0 | 0.0 | 0.0 | 0.00 | 0.00 | 0.00 | 92 | 1031.2 |
| 20260830213603 | 46 | 0 | 0.0 | 0.0 | 0.00 | 0.00 | 0.00 | 92 | 1031.2 |
| 20260830212703 | 46 | 0 | 0.0 | 0.0 | 0.00 | 0.00 | 0.00 | 93 | 1031.1 |
| 20260830211803 | 45 | 0 | 0.0 | 0.0 | 0.00 | 0.00 | 0.00 | 93 | 1031.0 |
| 20260830210903 | 44 | 57 | 0.0 | 1.7 | 0.00 | 0.00 | 0.00 | 93 | 1031.0 |
| 20260830210219 | 44 | 57 | 0.0 | 1.7 | 0.00 | 0.00 | 0.00 | 93 | 1030.9 |
| 20260830205403 | 44 | 57 | 0.0 | 1.7 | 0.00 | 0.00 | 0.00 | 92 | 1030.9 |
| 20260830204503 | 43 | 0 | 0.0 | 0.0 | 0.00 | 0.00 | 0.00 | 92 | 1030.6 |
| 20260830203603 | 43 | 0 | 0.0 | 0.0 | 0.00 | 0.00 | 0.00 | 92 | 1030.6 |
| 20260830202917 | 43 | 0 | 0.0 | 0.0 | 0.00 | 0.00 | 0.00 | 92 | 1030.5 |
| 20260830202016 | 43 | 0 | 0.0 | 0.0 | 0.00 | 0.00 | 0.00 | 91 | 1030.5 |
| 20260830200903 | 44 | 0 | 0.0 | 0.0 | 0.00 | 0.00 | 0.00 | 91 | 1030.4 |
| 20260830200219 | 45 | 0 | 0.0 | 0.0 | 0.00 | 0.00 | 0.00 | 92 | 1030.2 |
| 20260830195403 | 45 | 0 | 0.0 | 0.0 | 0.00 | 0.00 | 0.00 | 93 | 1030.1 |
| 20260830194503 | 44 | 0 | 0.0 | 0.0 | 0.00 | 0.00 | 0.00 | 92 | 1030.0 |
| 20260830193603 | 44 | 0 | 0.0 | 0.0 | 0.00 | 0.00 | 0.00 | 91 | 1029.7 |
| 20260830192703 | 44 | 0 | 0.0 | 0.0 | 0.00 | 0.00 | 0.00 | 91 | 1029.7 |
| 20260830192020 | 44 | 0 | 0.0 | 0.0 | 0.00 | 0.00 | 0.00 | 91 | 1029.8 |
| 20260830190903 | 45 | 0 | 0.0 | 0.0 | 0.00 | 0.00 | 0.00 | 92 | 1029.8 |
| 20260830190218 | 45 | 0 | 0.0 | 0.0 | 0.00 | 0.00 | 0.00 | 92 | 1029.8 |
| 20260830185404 | 45 | 56 | 0.0 | 2.6 | 0.00 | 0.00 | 0.00 | 93 | 1029.7 |
| 20260830184503 | 44 | 0 | 0.0 | 0.0 | 0.00 | 0.00 | 0.00 | 92 | 1029.8 |
| 20260830183605 | 44 | 0 | 0.0 | 0.0 | 0.00 | 0.00 | 0.00 | 91 | 1029.8 |
| 20260830182703 | 45 | 0 | 0.0 | 0.0 | 0.00 | 0.00 | 0.00 | 91 | 1029.9 |
| 20260830181803 | 45 | 0 | 0.0 | 0.0 | 0.00 | 0.00 | 0.00 | 91 | 1030.0 |
| 20260830180903 | 45 | 0 | 0.0 | 0.0 | 0.00 | 0.00 | 0.00 | 91 | 1030.0 |
| 20260830180003 | 45 | 0 | 0.0 | 0.0 | 0.00 | 0.00 | 0.00 | 91 | 1030.0 |
| 20260830175403 | 45 | 0 | 0.0 | 0.0 | 0.00 | 0.00 | 0.00 | 92 | 1030.0 |
| 20260830174717 | 45 | 0 | 0.0 | 0.0 | 0.00 | 0.00 | 0.00 | 91 | 1030.1 |
| 20260830173603 | 45 | 0 | 0.0 | 0.0 | 0.00 | 0.00 | 0.00 | 90 | 1030.2 |
| 20260830172704 | 45 | 0 | 0.0 | 0.0 | 0.00 | 0.00 | 0.00 | 90 | 1030.3 |
| 20260830171804 | 45 | 0 | 0.0 | 0.0 | 0.00 | 0.00 | 0.00 | 90 | 1030.3 |
| 20260830171118 | 46 | 0 | 0.0 | 0.0 | 0.00 | 0.00 | 0.00 | 90 | 1030.3 |
| 20260830170003 | 46 | 0 | 0.0 | 0.0 | 0.00 | 0.00 | 0.00 | 90 | 1030.4 |
| 20260830165403 | 46 | 0 | 0.0 | 0.0 | 0.00 | 0.00 | 0.00 | 90 | 1030.4 |
| 20260830164505 | 46 | 0 | 0.0 | 0.0 | 0.00 | 0.00 | 0.00 | 90 | 1030.5 |
| 20260830163816 | 46 | 0 | 0.0 | 0.0 | 0.00 | 0.00 | 0.00 | 90 | 1030.4 |
| 20260830162704 | 46 | 0 | 0.0 | 0.0 | 0.00 | 0.00 | 0.00 | 90 | 1030.4 |
| 20260830161803 | 46 | 0 | 0.0 | 0.0 | 0.00 | 0.00 | 0.00 | 89 | 1030.5 |
| 20260830160903 | 46 | 0 | 0.0 | 0.0 | 0.00 | 0.00 | 0.00 | 89 | 1030.6 |
| 20260830160003 | 47 | 0 | 0.0 | 0.0 | 0.00 | 0.00 | 0.00 | 88 | 1030.5 |
| 20260830155403 | 47 | 0 | 0.0 | 0.0 | 0.00 | 0.00 | 0.00 | 88 | 1030.5 |
| 20260830154503 | 47 | 0 | 0.0 | 0.0 | 0.00 | 0.00 | 0.00 | 88 | 1030.5 |
| 20260830153604 | 47 | 0 | 0.0 | 0.0 | 0.00 | 0.00 | 0.00 | 88 | 1030.5 |
| 20260830152703 | 48 | 0 | 0.0 | 0.0 | 0.00 | 0.00 | 0.00 | 87 | 1030.5 |
| 20260830151804 | 48 | 0 | 0.0 | 0.0 | 0.00 | 0.00 | 0.00 | 86 | 1030.5 |
| 20260830150903 | 49 | 0 | 0.0 | 0.0 | 0.00 | 0.00 | 0.00 | 85 | 1030.5 |
| 20260830150005 | 49 | 0 | 0.0 | 0.0 | 0.00 | 0.00 | 0.00 | 85 | 1030.5 |
| 20260830145403 | 50 | 0 | 0.0 | 0.0 | 0.00 | 0.00 | 0.00 | 85 | 1030.5 |
| 20260830144505 | 49 | 0 | 0.0 | 0.0 | 0.00 | 0.00 | 0.00 | 87 | 1030.7 |
| 20260830143603 | 49 | 0 | 0.0 | 0.0 | 0.00 | 0.00 | 0.00 | 86 | 1030.6 |
| 20260830142918 | 49 | 0 | 0.0 | 0.0 | 0.00 | 0.00 | 0.00 | 86 | 1030.6 |
| 20260830141803 | 49 | 0 | 0.0 | 0.0 | 0.00 | 0.00 | 0.00 | 86 | 1030.6 |
| 20260830140903 | 49 | 0 | 0.0 | 0.0 | 0.00 | 0.00 | 0.00 | 86 | 1030.5 |
| 20260830140004 | 50 | 0 | 0.0 | 0.0 | 0.00 | 0.00 | 0.00 | 86 | 1030.6 |
| 20260830135404 | 50 | 0 | 0.0 | 0.0 | 0.00 | 0.00 | 0.00 | 86 | 1030.7 |
| 20260830134503 | 50 | 53 | 0.9 | 3.5 | 0.00 | 0.00 | 0.00 | 86 | 1030.7 |
| 20260830133603 | 50 | 53 | 0.9 | 2.6 | 0.00 | 0.00 | 0.00 | 85 | 1030.7 |
| 20260830132918 | 50 | 53 | 0.0 | 2.6 | 0.00 | 0.00 | 0.00 | 85 | 1030.7 |
| 20260830131803 | 50 | 0 | 0.0 | 0.0 | 0.00 | 0.00 | 0.00 | 85 | 1030.6 |
| 20260830130903 | 51 | 0 | 0.0 | 0.0 | 0.00 | 0.00 | 0.00 | 84 | 1030.7 |
| 20260830130003 | 51 | 53 | 0.0 | 1.7 | 0.00 | 0.00 | 0.00 | 84 | 1030.8 |
| 20260830125404 | 51 | 0 | 0.0 | 0.0 | 0.00 | 0.00 | 0.00 | 83 | 1030.7 |
| 20260830124719 | 52 | 0 | 0.0 | 0.0 | 0.00 | 0.00 | 0.00 | 82 | 1030.7 |
| 20260830123604 | 52 | 0 | 0.0 | 0.0 | 0.00 | 0.00 | 0.00 | 82 | 1030.7 |
| 20260830122703 | 52 | 0 | 0.0 | 0.0 | 0.00 | 0.00 | 0.00 | 81 | 1030.6 |
| 20260830121803 | 53 | 53 | 0.0 | 1.7 | 0.00 | 0.00 | 0.00 | 81 | 1030.6 |
| 20260830120903 | 53 | 53 | 0.0 | 1.7 | 0.00 | 0.00 | 0.00 | 81 | 1030.5 |
| 20260830120004 | 53 | 53 | 0.0 | 1.7 | 0.00 | 0.00 | 0.00 | 80 | 1030.3 |
| 20260830115403 | 53 | 53 | 0.0 | 1.7 | 0.00 | 0.00 | 0.00 | 79 | 1030.3 |
| 20260830114504 | 54 | 0 | 0.0 | 0.0 | 0.00 | 0.00 | 0.00 | 78 | 1030.1 |
| 20260830113606 | 55 | 0 | 0.0 | 0.0 | 0.00 | 0.00 | 0.00 | 77 | 1030.1 |
| 20260830112703 | 55 | 0 | 0.0 | 0.0 | 0.00 | 0.00 | 0.00 | 77 | 1030.2 |
| 20260830111804 | 55 | 0 | 0.0 | 0.0 | 0.00 | 0.00 | 0.00 | 76 | 1030.2 |
| 20260830110903 | 56 | 0 | 0.0 | 0.0 | 0.00 | 0.00 | 0.00 | 76 | 1030.2 |
| 20260830110004 | 56 | 0 | 0.0 | 0.0 | 0.00 | 0.00 | 0.00 | 75 | 1030.1 |
| 20260830105403 | 56 | 0 | 0.0 | 0.0 | 0.00 | 0.00 | 0.00 | 75 | 1030.1 |
| 20260830104503 | 56 | 53 | 0.0 | 1.7 | 0.00 | 0.00 | 0.00 | 75 | 1030.0 |
| 20260830103603 | 56 | 55 | 0.0 | 0.9 | 0.00 | 0.00 | 0.00 | 74 | 1030.0 |
| 20260830102703 | 57 | 55 | 0.0 | 0.9 | 0.00 | 0.00 | 0.00 | 74 | 1030.0 |
| 20260830101803 | 57 | 0 | 0.0 | 0.0 | 0.00 | 0.00 | 0.00 | 73 | 1030.0 |
| 20260830101120 | 57 | 0 | 0.0 | 0.0 | 0.00 | 0.00 | 0.00 | 72 | 1029.9 |
| 20260830100219 | 58 | 0 | 0.0 | 0.0 | 0.00 | 0.00 | 0.00 | 72 | 1029.8 |
| 20260830095404 | 58 | 0 | 0.0 | 0.0 | 0.00 | 0.00 | 0.00 | 72 | 1029.7 |
| 20260830094503 | 58 | 0 | 0.0 | 0.0 | 0.00 | 0.00 | 0.00 | 71 | 1029.7 |
| 20260830093603 | 59 | 0 | 0.0 | 0.0 | 0.00 | 0.00 | 0.00 | 70 | 1029.7 |
| 20260830092703 | 60 | 0 | 0.0 | 0.0 | 0.00 | 0.00 | 0.00 | 69 | 1029.6 |
| 20260830092016 | 60 | 0 | 0.0 | 0.0 | 0.00 | 0.00 | 0.00 | 68 | 1029.6 |
| 20260830090904 | 61 | 0 | 0.0 | 0.0 | 0.00 | 0.00 | 0.00 | 66 | 1029.7 |
| 20260830090004 | 61 | 90 | 0.0 | 1.7 | 0.00 | 0.00 | 0.00 | 65 | 1029.6 |
| 20260830085403 | 62 | 90 | 0.0 | 1.7 | 0.00 | 0.00 | 0.00 | 64 | 1029.5 |
| 20260830084717 | 63 | 0 | 0.0 | 0.0 | 0.00 | 0.00 | 0.00 | 61 | 1029.2 |
| 20260830083817 | 64 | 0 | 0.0 | 0.0 | 0.00 | 0.00 | 0.00 | 59 | 1029.1 |
| 20260830082704 | 66 | 0 | 0.0 | 0.0 | 0.00 | 0.00 | 0.00 | 56 | 1028.9 |
| 20260830082020 | 66 | 0 | 0.0 | 0.0 | 0.00 | 0.00 | 0.00 | 53 | 1028.6 |
| 20260830080904 | 68 | 0 | 0.0 | 0.0 | 0.00 | 0.00 | 0.00 | 48 | 1028.5 |
| 20260830080004 | 69 | 0 | 0.0 | 0.0 | 0.00 | 0.00 | 0.00 | 45 | 1028.3 |
| 20260830075404 | 69 | 0 | 0.0 | 0.0 | 0.00 | 0.00 | 0.00 | 44 | 1028.3 |
| 20260830074503 | 70 | 90 | 0.0 | 0.9 | 0.00 | 0.00 | 0.00 | 42 | 1028.3 |
| 20260830073603 | 71 | 91 | 0.0 | 1.7 | 0.00 | 0.00 | 0.00 | 41 | 1028.3 |
| 20260830072703 | 72 | 92 | 0.9 | 2.6 | 0.00 | 0.00 | 0.00 | 41 | 1028.2 |
| 20260830071804 | 73 | 91 | 1.7 | 5.2 | 0.00 | 0.00 | 0.00 | 39 | 1028.3 |
| 20260830070903 | 74 | 91 | 2.6 | 5.2 | 0.00 | 0.00 | 0.00 | 39 | 1028.2 |
| 20260830070004 | 74 | 82 | 2.6 | 4.3 | 0.00 | 0.00 | 0.00 | 38 | 1027.9 |
| 20260830065403 | 74 | 83 | 2.6 | 4.3 | 0.00 | 0.00 | 0.00 | 38 | 1028.0 |
| 20260830064505 | 74 | 86 | 3.5 | 6.1 | 0.00 | 0.00 | 0.00 | 37 | 1028.0 |
| 20260830063604 | 74 | 85 | 3.5 | 7.0 | 0.00 | 0.00 | 0.00 | 37 | 1027.8 |
| 20260830062703 | 75 | 84 | 3.5 | 7.0 | 0.00 | 0.00 | 0.00 | 37 | 1027.9 |
| 20260830061804 | 75 | 93 | 3.5 | 7.0 | 0.00 | 0.00 | 0.00 | 38 | 1027.8 |
| 20260830060903 | 75 | 79 | 1.7 | 6.1 | 0.00 | 0.00 | 0.00 | 38 | 1027.8 |
| 20260830060003 | 75 | 100 | 2.6 | 6.1 | 0.00 | 0.00 | 0.00 | 37 | 1027.9 |
| 20260830055403 | 74 | 117 | 1.7 | 6.1 | 0.00 | 0.00 | 0.00 | 37 | 1027.9 |
| 20260830054716 | 75 | 79 | 2.6 | 8.7 | 0.00 | 0.00 | 0.00 | 36 | 1027.9 |